RH
86 85 85 86 86 86 87 86 86 87 87 87 85 85 84 84 74 16 13 31 34 62 62 28 21 22 23 32 36 40 54 37 35 34 38 27 28 28 24 24 26 23 25 26 29
86 86 87 86 87 88 88 87 86 86 88 88 86 84 84 85 19 12 39 57 53 60 27 19 19 19 26 31 28 37 51 41 30 30 32 29 29 25 28 26 26 24 25 28 30
86 85 87 87 88 88 90 89 88 87 87 87 86 84 84 64 20 14 55 56 51 46 23 17 17 22 34 29 25 28 39 31 27 31 26 28 29 26 27 31 23 26 26 31 32
84 86 85 86 86 87 88 90 88 87 85 87 86 84 84 23 21 13 56 53 47 28 18 16 18 31 35 27 23 29 23 22 32 29 26 27 24 28 26 32 20 23 22 28 32
83 84 85 86 86 86 88 89 88 86 86 87 85 84 33 19 14 12 49 38 16 16 15 18 18 22 26 21 20 23 21 22 23 27 26 24 26 24 24 21 20 20 23 28 29
82 84 85 86 86 87 89 89 88 87 89 86 82 83 24 20 10 10 13 13 14 15 17 17 17 16 23 20 23 24 23 18 22 22 24 26 24 28 24 20 21 21 25 26 27
83 84 85 87 89 88 89 89 89 89 88 83 78 27 16 14 10 10 13 16 16 16 19 17 16 18 20 24 23 21 23 22 21 20 25 27 28 24 22 18 21 23 25 24 25
83 85 88 89 89 89 88 90 90 88 78 76 70 19 18 11 11 10 11 13 15 15 18 17 16 21 22 25 20 22 24 29 23 21 27 30 28 24 18 21 22 21 22 25 23
83 85 86 89 90 89 90 89 87 82 73 66 24 16 16 22 10 11 12 12 15 16 21 11 18 26 28 29 26 23 20 18 27 18 23 25 29 21 17 18 20 20 19 21 23
82 85 86 89 90 90 90 85 73 68 41 18 12 15 13 11 12 12 13 13 14 19 18 21 22 28 27 22 30 21 17 15 18 23 21 24 25 20 18 18 19 18 18 18 22
80 84 87 88 90 89 67 23 20 21 16 18 14 14 11 10 11 10 12 13 14 16 22 23 24 28 20 22 19 18 16 17 17 20 25 23 21 17 15 20 23 21 18 18 18
78 82 86 88 91 90 73 29 26 24 20 16 12 12 10 10 11 10 12 16 19 20 23 23 28 20 18 21 20 20 18 20 20 19 20 21 19 17 17 20 23 23 20 18 17
77 81 85 89 89 70 33 21 23 20 23 17 12 11 12 10 12 12 12 17 17 18 18 21 22 18 18 19 18 18 24 22 21 20 18 21 25 21 20 21 20 22 23 18 17
79 82 86 87 72 28 26 20 24 25 25 20 16 12 12 16 18 13 14 20 18 19 20 23 20 18 22 19 19 27 22 21 24 28 28 19 28 20 19 21 21 28 24 23 19
81 84 83 84 70 30 24 24 28 26 34 19 15 12 11 15 18 17 17 19 20 18 26 32 24 24 23 23 19 26 28 26 30 31 30 28 33 38 15 17 18 21 21 22 21
79 79 81 61 58 37 26 28 29 30 28 22 18 18 15 15 15 18 17 19 22 24 19 23 21 21 21 20 20 20 24 27 32 35 45 28 21 30 20 20 17 17 18 19 19
78 77 73 53 34 29 28 29 28 31 18 23 21 18 16 18 16 18 19 21 24 30 28 23 21 19 20 23 24 26 31 46 54 53 40 24 26 23 19 18 19 19 16 17 19
80 76 66 51 38 34 28 28 36 17 16 17 19 18 19 18 18 18 21 23 20 22 23 27 34 24 21 22 27 24 31 38 46 40 32 28 34 25 16 15 15 16 20 18 20
76 50 50 41 43 36 30 33 20 19 17 20 19 21 21 18 21 20 21 20 17 18 24 21 31 19 17 18 22 29 36 34 32 28 42 34 22 18 17 15 19 24 22 23 22
52 48 45 31 37 38 36 34 19 18 17 19 23 20 22 20 22 21 21 20 21 19 19 21 30 24 21 21 26 30 24 36 41 64 52 28 34 25 24 16 19 21 22 24 23
58 46 38 35 36 38 38 26 18 16 18 20 24 22 20 20 18 19 18 26 20 26 21 24 25 36 30 28 29 29 28 27 30 31 53 50 36 25 17 16 17 17 20 21 22
53 45 41 34 47 34 34 23 35 20 22 23 26 22 19 20 20 21 20 25 22 25 23 29 29 31 30 23 22 26 26 24 51 46 37 51 45 14 15 15 19 16 17 18 19
49 48 40 36 43 36 27 23 24 22 22 24 24 23 22 22 27 24 28 37 30 28 27 26 28 34 42 37 31 29 23 23 31 42 53 74 52 14 16 19 18 23 23 20 18
54 54 52 48 37 28 28 25 28 27 23 20 20 20 25 24 26 29 32 39 39 34 49 37 31 32 38 38 33 34 30 24 26 57 58 43 32 24 25 26 23 23 22 21 21
65 45 44 58 48 39 27 26 28 30 26 21 25 24 24 28 25 27 32 35 36 47 34 33 35 28 24 24 26 28 29 31 32 25 33 30 31 23 21 23 22 22 21 22 23
69 53 45 52 39 39 42 31 27 25 27 26 26 23 21 25 24 26 30 29 32 37 30 31 36 32 32 24 25 29 28 27 28 25 22 22 24 18 18 22 25 24 23 26 26
52 57 62 63 41 36 38 31 26 20 21 18 22 23 24 21 20 21 21 23 26 33 33 38 40 39 42 30 34 39 30 29 29 26 25 32 24 22 27 27 28 25 27 26 26
Wind_Speed
9 9 9 9 9 9 10 11 11 10 9 10 11 11 12 12 13 5 5 4 6 10 8 10 10 2 5 3 2 2 3 2 6 3 6 6 4 1 2 6 0 4 7 10 16
9 9 9 9 10 10 10 11 11 11 10 10 10 11 12 12 6 7 3 5 6 7 9 7 7 8 3 1 0 2 3 6 7 8 5 5 3 9 3 6 5 7 5 14 13
8 9 9 10 10 11 11 11 12 11 10 10 10 11 11 10 8 6 4 4 6 8 12 8 8 3 1 2 4 5 5 3 6 8 7 2 1 2 4 5 8 12 13 14 10
9 9 9 10 11 11 11 11 12 12 11 10 10 11 11 5 2 4 1 2 6 7 11 7 6 2 2 4 2 3 4 5 2 3 2 1 3 2 7 2 6 9 18 16 12
9 9 10 11 11 12 12 12 13 12 12 10 10 9 6 7 4 5 1 5 7 6 5 7 7 4 4 3 4 4 4 1 4 2 3 4 5 6 5 7 7 6 15 13 11
7 9 10 11 12 13 13 13 13 12 11 10 8 9 4 6 1 4 3 3 4 7 3 6 6 5 2 4 4 2 1 5 5 4 3 3 7 4 5 10 10 8 10 10 11
6 8 10 11 12 13 14 14 13 13 11 9 7 5 8 4 1 5 1 2 3 5 4 4 7 6 5 4 1 2 4 7 7 7 1 2 5 10 7 6 11 10 9 10 11
7 8 10 12 13 14 15 14 13 11 9 9 5 4 1 2 5 3 2 3 1 4 4 5 7 3 4 2 5 5 6 4 6 6 3 1 5 10 10 8 9 11 10 10 11
7 7 10 12 13 15 17 17 12 9 8 9 4 5 3 2 3 3 4 2 1 2 1 2 4 2 2 5 4 5 3 5 6 6 3 5 5 6 9 9 9 10 10 10 10
5 7 9 11 13 15 20 10 5 8 5 7 8 5 3 1 5 1 2 3 3 2 5 5 5 3 4 5 4 7 7 8 6 5 6 8 12 12 11 11 11 10 10 10 10
4 6 9 11 13 14 12 3 4 4 7 3 4 2 5 5 3 4 2 3 4 5 5 4 3 4 9 7 6 6 7 9 5 4 3 7 10 9 7 12 10 10 9 10 10
3 6 9 12 12 12 5 6 4 4 5 3 1 3 3 2 4 5 2 4 4 6 1 3 4 6 4 3 5 6 8 7 4 3 2 9 16 12 3 2 12 11 9 8 9
3 5 9 12 14 6 8 4 5 6 5 6 7 6 3 5 1 7 3 1 5 7 3 5 4 2 3 6 5 7 4 5 5 10 8 8 6 4 3 1 4 5 7 8 9
3 4 7 12 5 7 9 4 2 3 4 10 7 5 6 2 3 3 2 3 3 5 3 4 2 3 4 4 5 5 6 5 8 8 4 5 5 3 5 6 5 5 5 6 7
4 4 5 3 10 5 5 3 1 2 5 9 10 2 9 5 7 3 1 2 5 3 2 2 1 3 5 3 4 3 3 4 5 6 6 2 0 1 6 6 6 4 8 8 7
5 3 2 5 5 6 2 3 3 4 6 5 7 8 8 7 5 4 4 2 2 2 4 4 0 3 4 2 3 6 5 7 4 3 1 3 4 2 3 4 5 5 4 5 8
6 5 4 7 2 6 3 3 4 6 7 7 7 11 12 8 9 7 8 7 5 4 6 5 4 4 2 5 5 6 5 1 1 1 1 3 2 7 6 6 4 4 6 6 6
6 5 9 8 7 2 4 5 7 1 7 7 8 9 8 9 8 9 6 7 10 3 2 6 3 2 1 4 4 5 4 2 1 3 4 3 3 5 5 6 5 5 2 6 5
4 5 5 7 10 4 6 8 6 4 11 11 12 9 9 9 1 7 7 6 8 10 4 3 4 3 5 3 3 2 2 2 3 1 2 5 5 6 3 5 3 1 4 6 6
4 7 7 10 8 4 6 9 10 3 5 11 8 11 11 11 6 9 10 1 5 2 4 5 4 2 2 2 2 2 3 1 2 2 4 5 2 3 2 5 5 2 6 7 7
5 6 9 11 7 5 10 8 8 6 5 10 5 7 5 9 11 8 7 3 7 2 4 4 1 1 1 4 2 2 2 3 0 1 1 4 6 1 4 6 6 6 3 8 9
5 5 8 10 7 7 12 12 2 8 4 4 2 4 7 8 9 7 7 5 8 8 7 1 0 4 2 4 3 2 3 1 5 1 1 4 9 3 6 5 1 6 7 6 7
4 5 4 9 10 11 11 19 3 6 8 5 5 4 3 6 5 6 6 4 5 5 5 5 4 3 1 0 1 4 5 4 4 3 5 5 8 2 7 5 6 5 7 7 8
6 6 5 6 10 16 16 16 9 6 7 10 5 5 3 5 2 5 4 2 2 1 3 3 3 4 1 3 6 4 5 7 6 4 5 10 9 8 10 6 8 8 7 6 7
6 6 8 11 13 15 14 11 15 8 6 10 5 8 9 6 7 4 6 4 2 3 1 2 3 6 7 2 5 5 7 11 11 12 7 4 8 13 9 9 8 6 6 6 7
5 3 4 6 17 19 15 16 17 19 12 8 10 14 10 7 7 8 10 7 6 5 6 3 2 3 4 7 6 9 9 11 16 16 17 16 23 17 15 8 5 7 5 6 7
6 5 3 4 15 18 17 18 21 15 17 10 16 9 14 13 0 5 8 7 11 11 9 8 4 4 2 6 3 9 12 19 8 8 19 14 21 9 7 4 5 7 7 7 8
Wind_Direction
41 37 32 25 19 10 2 358 351 347 344 338 336 332 328 332 309 246 40 339 318 322 311 266 253 156 256 122 285 276 279 86 62 29 91 116 148 49 14 138 327 74 59 115 137
31 29 26 21 14 3 355 352 345 343 340 335 329 328 329 336 272 76 350 330 318 324 301 334 6 311 118 317 166 301 354 35 24 29 61 136 273 134 183 183 149 113 88 121 140
22 22 21 16 7 357 351 346 343 340 333 326 322 325 329 324 284 78 354 347 321 308 283 292 279 285 309 96 3 11 23 87 50 29 348 118 222 94 198 232 189 177 153 149 161
11 10 10 7 0 352 347 341 340 335 325 317 321 324 324 258 358 57 339 310 292 291 281 282 273 7 329 44 25 190 65 1 66 51 300 270 356 166 212 266 48 61 153 156 175
4 1 359 359 352 347 343 338 335 329 315 312 319 330 302 230 76 107 238 209 264 275 309 341 314 346 51 26 298 22 104 98 106 187 276 350 266 249 277 188 124 119 150 166 179
358 352 350 349 348 344 337 332 331 318 303 306 311 319 248 271 300 57 10 251 351 295 11 341 17 341 49 38 339 39 178 136 163 185 236 260 278 87 224 207 149 171 164 174 185
347 349 345 344 343 340 332 329 322 305 301 292 308 294 272 77 37 4 179 38 310 335 326 22 343 318 351 162 155 181 256 176 185 207 233 341 246 230 214 201 170 176 192 185 189
334 344 344 342 339 334 327 321 309 297 292 282 295 269 7 97 356 219 235 120 51 52 50 356 347 57 326 115 215 237 207 193 134 163 130 228 288 191 160 175 191 184 205 188 193
319 335 338 338 335 330 322 317 294 281 273 280 262 225 131 179 199 83 319 354 106 154 14 275 267 337 189 227 222 214 309 57 153 185 142 203 308 120 148 178 209 205 197 185 189
306 326 333 333 331 330 320 288 296 303 232 235 268 282 181 150 97 29 88 312 296 233 218 233 231 232 240 358 20 343 351 346 324 148 201 244 248 247 201 187 205 211 200 192 180
285 318 327 326 326 332 337 244 205 204 221 319 342 111 125 87 192 222 56 244 237 229 275 172 295 43 32 34 343 317 311 296 358 91 318 253 265 268 251 191 201 209 226 196 185
273 314 321 319 318 323 288 262 72 337 214 185 194 124 52 218 165 140 223 247 183 271 110 229 69 44 34 355 317 293 287 328 58 116 237 276 286 277 234 188 201 192 218 224 183
253 304 315 314 321 283 239 285 7 322 259 167 196 189 173 211 281 130 235 139 273 276 247 314 82 34 348 311 324 312 25 10 320 318 252 286 273 129 124 30 359 332 201 224 190
237 292 311 322 294 228 224 241 350 326 274 161 196 170 159 229 179 37 37 327 218 320 34 52 69 359 308 287 11 306 20 339 318 345 296 18 298 126 150 146 195 208 268 235 227
219 263 300 322 319 226 67 143 188 241 266 147 137 89 148 189 132 145 59 216 290 83 295 47 76 334 292 37 348 350 354 299 303 296 297 132 61 170 150 95 96 139 189 217 246
219 227 304 221 231 285 129 120 233 230 242 158 133 177 165 198 158 133 186 222 339 297 218 84 80 344 9 302 245 310 260 224 239 243 271 70 59 290 69 84 126 138 152 161 195
207 218 219 312 265 147 188 197 206 243 148 162 185 173 191 167 183 193 180 184 189 178 196 149 159 112 297 276 195 241 284 36 317 316 180 90 339 251 128 143 100 95 144 155 171
195 220 224 250 314 253 205 205 242 252 161 144 150 171 196 153 209 190 191 225 208 244 274 190 231 167 84 23 348 328 341 84 195 345 304 154 238 240 133 140 173 182 219 150 184
182 203 239 219 236 224 222 210 206 254 121 149 149 176 207 167 133 173 224 224 192 187 237 179 111 114 38 342 2 12 33 0 312 12 335 234 237 89 104 128 88 220 201 233 233
237 183 207 161 172 201 223 237 212 65 108 159 185 200 182 181 192 187 183 250 150 137 85 4 117 16 135 271 192 297 302 321 266 14 302 307 312 247 213 107 128 179 218 247 254
239 188 129 151 177 205 219 235 242 141 164 184 267 185 243 162 199 189 187 348 113 116 65 331 84 142 110 204 125 167 186 226 138 59 176 325 278 357 49 74 39 358 292 234 224
243 201 169 156 188 203 223 227 355 136 144 247 272 243 228 147 187 198 200 71 109 149 164 173 305 158 101 73 44 325 314 338 112 186 292 149 274 124 91 90 212 259 259 259 232
226 128 167 197 202 218 226 234 185 175 187 202 226 236 289 161 180 219 92 310 94 187 163 187 224 161 158 108 26 237 187 238 87 81 224 142 257 151 151 193 254 290 305 269 268
270 157 149 217 252 205 201 221 198 227 214 222 236 171 154 217 137 183 110 112 136 251 29 51 280 247 154 122 123 186 202 194 182 149 228 228 265 251 300 322 332 318 298 317 309
258 209 173 177 208 224 234 199 205 193 230 210 218 207 190 182 167 194 109 126 183 138 223 210 234 245 264 256 164 229 203 196 210 218 210 221 251 276 303 312 293 273 317 330 320
276 257 162 183 197 201 204 216 207 202 173 200 222 193 210 225 177 186 139 173 180 151 185 196 250 29 296 258 238 266 240 235 218 225 247 262 280 279 274 270 316 301 316 312 301
213 270 295 230 185 192 205 207 207 198 201 206 203 203 209 214 221 53 170 172 148 151 184 152 185 157 247 58 35 293 235 215 216 218 215 226 238 268 269 290 269 285 282 269 278